Local,Data,Vel_media,Vel_mediana,Vel_std,Volume
5129,2018-04-26 07:00:00,0.0,0.0,0.0,85
5129,2018-04-26 07:04:00,0.0,0.0,0.0,78
5129,2018-04-26 07:08:00,0.0,0.0,0.0,97
5129,2018-04-26 07:12:00,0.0,0.0,0.0,102
5129,2018-04-26 07:16:00,0.0,0.0,0.0,105
5129,2018-04-26 07:20:00,0.0,0.0,0.0,90
5129,2018-04-26 07:24:00,0.0,0.0,0.0,95
5129,2018-04-26 07:28:00,0.0,0.0,0.0,82
5129,2018-04-26 07:32:00,0.0,0.0,0.0,78
5129,2018-04-26 07:36:00,0.0,0.0,0.0,72
5129,2018-04-26 07:40:00,0.0,0.0,0.0,82
5129,2018-04-26 07:44:00,0.0,0.0,0.0,74
5129,2018-04-26 07:48:00,0.0,0.0,0.0,70
5129,2018-04-26 07:52:00,0.0,0.0,0.0,85
5129,2018-04-26 07:56:00,0.0,0.0,0.0,81
5129,2018-04-26 08:00:00,0.0,0.0,0.0,78
5129,2018-04-26 08:04:00,0.0,0.0,0.0,61
5129,2018-04-26 08:08:00,0.0,0.0,0.0,75
5129,2018-04-26 08:12:00,0.0,0.0,0.0,69
5129,2018-04-26 08:16:00,0.0,0.0,0.0,79
5129,2018-04-26 08:20:00,0.0,0.0,0.0,75
5129,2018-04-26 08:24:00,0.0,0.0,0.0,65
5129,2018-04-26 08:28:00,0.0,0.0,0.0,82
5129,2018-04-26 08:32:00,0.0,0.0,0.0,77
5129,2018-04-26 08:36:00,0.0,0.0,0.0,72
5129,2018-04-26 08:40:00,0.0,0.0,0.0,73
5129,2018-04-26 08:44:00,0.0,0.0,0.0,75
5129,2018-04-26 08:48:00,0.0,0.0,0.0,77
5129,2018-04-26 08:52:00,0.0,0.0,0.0,79
5129,2018-04-26 08:56:00,0.0,0.0,0.0,61
5151,2018-04-26 07:00:00,104.5,111.0,29.034915460346593,58
5151,2018-04-26 07:04:00,100.04761904761905,103.0,20.36705629723089,84
5151,2018-04-26 07:08:00,93.46031746031746,103.0,29.34600340807289,63
5151,2018-04-26 07:12:00,96.10185185185185,97.0,23.466396660747247,108
5151,2018-04-26 07:16:00,100.10843373493977,106.0,25.253356235863652,83
5151,2018-04-26 07:20:00,93.97,103.0,27.134701402484975,100
5151,2018-04-26 07:24:00,102.77118644067797,108.0,22.9113531432308,118
5151,2018-04-26 07:28:00,95.71,100.0,22.83020106806072,100
5151,2018-04-26 07:32:00,93.65346534653466,100.0,25.502327597128996,101
5151,2018-04-26 07:36:00,92.69607843137256,97.0,25.780024969718944,102
5151,2018-04-26 07:40:00,96.71171171171171,106.0,26.624454714821653,111
5151,2018-04-26 07:44:00,95.42335766423358,97.0,21.82979703623455,137
5151,2018-04-26 07:48:00,93.31521739130434,98.5,27.66158495765931,92
5151,2018-04-26 07:52:00,87.53543307086615,89.0,25.469494755581866,127
5151,2018-04-26 07:56:00,82.60396039603961,86.0,28.335870979350812,101
5151,2018-04-26 08:00:00,85.89565217391305,89.0,27.26747754758002,115
5151,2018-04-26 08:04:00,82.1268656716418,86.0,21.384212306437256,134
5151,2018-04-26 08:08:00,89.02380952380952,92.0,27.172796544700123,84
5151,2018-04-26 08:12:00,90.29245283018868,97.0,28.20130594109904,106
5151,2018-04-26 08:16:00,92.3173076923077,98.5,25.55301529642554,104
5151,2018-04-26 08:20:00,88.09322033898304,95.5,25.077652832593035,118
5151,2018-04-26 08:24:00,85.51694915254237,89.0,23.320411458908197,118
5151,2018-04-26 08:28:00,88.11764705882354,94.0,25.676286894398757,85
5151,2018-04-26 08:32:00,83.09558823529412,86.0,25.06432574071367,136
5151,2018-04-26 08:36:00,92.46236559139786,97.0,20.94639075467415,93
5151,2018-04-26 08:40:00,84.792,89.0,22.722127910347517,125
5151,2018-04-26 08:44:00,81.37086092715232,83.0,22.33073096102909,151
5151,2018-04-26 08:48:00,81.87155963302752,89.0,21.83655655488409,109
5151,2018-04-26 08:52:00,89.65789473684211,93.0,21.58409318721742,114
5151,2018-04-26 08:56:00,89.325,94.0,22.687190514591663,120
5194,2018-04-26 07:00:00,85.2,92.0,21.48487840319326,15
5194,2018-04-26 07:04:00,100.41666666666667,98.5,11.090194959621957,12
5194,2018-04-26 07:08:00,81.3,81.0,14.404312219829025,20
5194,2018-04-26 07:12:00,88.22222222222223,90.5,24.274303904857078,18
5194,2018-04-26 07:16:00,83.0,83.0,8.518886580500329,15
5194,2018-04-26 07:20:00,92.15384615384616,97.0,19.544164320184148,13
5194,2018-04-26 07:24:00,94.625,104.5,28.82923863025175,8
5194,2018-04-26 07:28:00,65.52,67.0,31.974104105249506,25
5194,2018-04-26 07:32:00,67.6,67.0,20.85665361461421,25
5194,2018-04-26 07:36:00,64.27272727272727,64.0,25.07357139866562,22
5194,2018-04-26 07:40:00,68.66666666666667,75.0,24.265888265903918,21
5194,2018-04-26 07:44:00,48.54545454545455,42.0,22.61510959111589,33
5194,2018-04-26 07:48:00,67.68181818181819,70.5,19.87193849109692,22
5194,2018-04-26 07:52:00,74.65384615384616,82.0,28.47306419434664,26
5194,2018-04-26 07:56:00,71.93103448275862,75.0,25.492199135201506,29
5194,2018-04-26 08:00:00,59.166666666666664,53.0,32.947275888997986,30
5194,2018-04-26 08:04:00,78.57142857142857,86.0,22.80256877759922,21
5194,2018-04-26 08:08:00,84.83333333333333,90.5,19.560614690209086,18
5194,2018-04-26 08:12:00,67.27272727272727,66.5,22.912217198902795,22
5194,2018-04-26 08:16:00,44.583333333333336,43.0,22.047189649217685,36
5194,2018-04-26 08:20:00,62.46153846153846,58.0,22.07846148486034,26
5194,2018-04-26 08:24:00,85.74074074074075,86.0,15.653931903697039,27
5194,2018-04-26 08:28:00,63.43333333333333,67.0,28.529093841240364,30
5194,2018-04-26 08:32:00,44.473684210526315,39.0,24.173834387739316,19
5194,2018-04-26 08:36:00,80.07692307692308,83.0,19.309941640353195,26
5194,2018-04-26 08:40:00,63.0,64.0,25.73151979792704,37
5194,2018-04-26 08:44:00,82.46428571428571,87.5,21.450169891163767,28
5194,2018-04-26 08:48:00,35.81818181818182,25.0,23.128288931906503,22
5194,2018-04-26 08:52:00,60.78947368421053,56.0,22.104747975060373,19
5194,2018-04-26 08:56:00,76.7741935483871,78.0,27.84565756381577,31
5195,2018-04-26 07:00:00,92.56593406593407,92.0,30.335209088593206,182
5195,2018-04-26 07:04:00,77.61271676300578,75.0,17.987891926192475,173
5195,2018-04-26 07:08:00,82.94827586206897,89.0,21.389119172501776,174
5195,2018-04-26 07:12:00,83.60588235294118,83.0,17.897901453404568,170
5195,2018-04-26 07:16:00,89.12422360248448,89.0,17.709375258593674,161
5195,2018-04-26 07:20:00,95.7235294117647,97.0,16.650249368630824,170
5195,2018-04-26 07:24:00,69.22754491017965,64.0,72.50182188377299,167
5195,2018-04-26 07:28:00,51.993197278911566,50.0,21.004075468411664,147
5195,2018-04-26 07:32:00,53.16875,50.0,17.230666633694394,160
5195,2018-04-26 07:36:00,50.251612903225805,47.0,19.75715998716096,155
5195,2018-04-26 07:40:00,57.278481012658226,54.5,22.205718382618745,158
5195,2018-04-26 07:44:00,41.73426573426573,42.0,11.965885221752531,143
5195,2018-04-26 07:48:00,53.589285714285715,53.0,21.118805751580002,168
5195,2018-04-26 07:52:00,40.44897959183673,39.0,15.582824964785502,147
5195,2018-04-26 07:56:00,48.44230769230769,47.0,16.403477359356106,156
5195,2018-04-26 08:00:00,40.42553191489362,36.0,16.137017799613584,141
5195,2018-04-26 08:04:00,53.86309523809524,53.0,23.190676837008013,168
5195,2018-04-26 08:08:00,61.666666666666664,61.0,20.656972825556736,153
5195,2018-04-26 08:12:00,46.38562091503268,44.0,17.640087488969748,153
5195,2018-04-26 08:16:00,39.27131782945737,36.0,32.09209207937382,129
5195,2018-04-26 08:20:00,49.58139534883721,50.0,17.22448188372558,129
5195,2018-04-26 08:24:00,53.32298136645963,56.0,12.518287864396662,161
5195,2018-04-26 08:28:00,45.33986928104575,44.0,14.498712918690044,153
5195,2018-04-26 08:32:00,48.13461538461539,47.0,17.74227193454952,156
5195,2018-04-26 08:36:00,55.900621118012424,58.0,14.966297541870578,161
5195,2018-04-26 08:40:00,55.90196078431372,53.0,29.082180451510883,153
5195,2018-04-26 08:44:00,62.424050632911396,57.0,33.548385877011036,158
5195,2018-04-26 08:48:00,51.09219858156028,44.0,24.53944367433781,141
5195,2018-04-26 08:52:00,49.76258992805755,50.0,19.230705645411916,139
5195,2018-04-26 08:56:00,44.40816326530612,44.0,14.413062521922022,147
5196,2018-04-26 07:00:00,99.0,98.5,13.46375606109704,12
5196,2018-04-26 07:04:00,111.2,105.5,23.46060527778429,10
5196,2018-04-26 07:08:00,109.46666666666667,108.0,7.28860820210618,15
5196,2018-04-26 07:12:00,99.07142857142857,94.0,12.993870067868901,14
5196,2018-04-26 07:16:00,108.13333333333334,97.0,56.5418513349267,15
5196,2018-04-26 07:20:00,122.88888888888889,117.0,20.943044456599694,9
5196,2018-04-26 07:24:00,109.0,100.0,46.55641738793912,13
5196,2018-04-26 07:28:00,100.64285714285714,103.0,20.029236871891293,14
5196,2018-04-26 07:32:00,114.92,108.0,50.791173773927824,25
5196,2018-04-26 07:36:00,109.77777777777777,108.0,9.35117342607036,9
5196,2018-04-26 07:40:00,99.47368421052632,100.0,22.736090793304893,19
5196,2018-04-26 07:44:00,101.16666666666667,103.0,14.188852293676355,18
5196,2018-04-26 07:48:00,113.24242424242425,103.0,74.97792604453257,33
5196,2018-04-26 07:52:00,121.85714285714286,100.0,122.09793103040182,28
5196,2018-04-26 07:56:00,91.44444444444444,111.0,31.341050363835876,18
5196,2018-04-26 08:00:00,97.8076923076923,101.5,13.499686606048991,26
5196,2018-04-26 08:04:00,124.11111111111111,103.0,91.46387825606908,27
5196,2018-04-26 08:08:00,106.17647058823529,106.0,25.79543393247545,17
5196,2018-04-26 08:12:00,140.1818181818182,107.0,158.16887791027014,22
5196,2018-04-26 08:16:00,95.44444444444444,97.0,15.320507456280577,27
5196,2018-04-26 08:20:00,94.02777777777777,97.0,15.641494468443522,36
5196,2018-04-26 08:24:00,111.41666666666667,111.0,10.089244626970698,36
5196,2018-04-26 08:28:00,76.9090909090909,89.0,31.736878189724912,22
5196,2018-04-26 08:32:00,91.44827586206897,94.0,23.443832888258928,29
5196,2018-04-26 08:36:00,110.38709677419355,111.0,27.96030211967775,31
5196,2018-04-26 08:40:00,100.65714285714286,100.0,16.027444949106474,35
5196,2018-04-26 08:44:00,109.125,100.0,48.532932250385535,40
5196,2018-04-26 08:48:00,90.46153846153847,94.0,24.460328949294457,39
5196,2018-04-26 08:52:00,98.23529411764706,103.0,15.984952817494959,34
5196,2018-04-26 08:56:00,99.8,100.0,14.596645812155518,30
5197,2018-04-26 07:00:00,81.24761904761905,81.0,23.3501661120823,210
5197,2018-04-26 07:04:00,95.82539682539682,97.0,20.301613772879758,189
5197,2018-04-26 07:08:00,71.98536585365854,69.0,25.332780834167526,205
5197,2018-04-26 07:12:00,84.56410256410257,86.0,21.09159561917074,195
5197,2018-04-26 07:16:00,82.145,82.0,21.97129179899497,200
5197,2018-04-26 07:20:00,97.18536585365854,100.0,20.015552298439665,205
5197,2018-04-26 07:24:00,92.02577319587628,92.0,26.666708119637313,194
5197,2018-04-26 07:28:00,68.76886792452831,69.0,16.979451552263065,212
5197,2018-04-26 07:32:00,66.6788990825688,67.0,17.178853539181368,218
5197,2018-04-26 07:36:00,59.8,58.0,17.076643836125474,205
5197,2018-04-26 07:40:00,65.07655502392345,67.0,19.298611837236205,209
5197,2018-04-26 07:44:00,61.509803921568626,59.5,18.980282793908344,204
5197,2018-04-26 07:48:00,59.20100502512563,61.0,15.479859805272262,199
5197,2018-04-26 07:52:00,57.248704663212436,58.0,16.481375564583907,193
5197,2018-04-26 07:56:00,66.02403846153847,67.0,18.970213087317276,208
5197,2018-04-26 08:00:00,59.49009900990099,56.0,17.63878587528992,202
5197,2018-04-26 08:04:00,60.18627450980392,61.0,16.092852736698415,204
5197,2018-04-26 08:08:00,61.531400966183575,61.0,14.924331130012206,207
5197,2018-04-26 08:12:00,59.02450980392157,56.0,18.006139819158783,204
5197,2018-04-26 08:16:00,59.44976076555024,58.0,15.91922556944757,209
5197,2018-04-26 08:20:00,61.65989847715736,58.0,17.131873445269857,197
5197,2018-04-26 08:24:00,56.919786096256686,56.0,21.920898457894257,187
5197,2018-04-26 08:28:00,50.69189189189189,50.0,21.513322191781064,185
5197,2018-04-26 08:32:00,63.05140186915888,61.0,16.00827757996404,214
5197,2018-04-26 08:36:00,64.29441624365482,61.0,41.19174450786671,197
5197,2018-04-26 08:40:00,50.307291666666664,53.0,15.329687481516942,192
5197,2018-04-26 08:44:00,57.310526315789474,58.0,18.103564346547017,190
5197,2018-04-26 08:48:00,52.54822335025381,53.0,13.252414465837914,197
5197,2018-04-26 08:52:00,58.163366336633665,58.0,13.953299670543005,202
5197,2018-04-26 08:56:00,50.964285714285715,53.0,14.793753012847285,196
5198,2018-04-26 07:00:00,110.0,111.0,10.595596569644707,16
5198,2018-04-26 07:04:00,107.0,108.0,7.6892782496148495,17
5198,2018-04-26 07:08:00,100.77777777777777,101.5,14.882107518191317,18
5198,2018-04-26 07:12:00,113.25,114.0,18.62077692614713,16
5198,2018-04-26 07:16:00,104.35714285714286,98.5,24.040373550333207,14
5198,2018-04-26 07:20:00,113.91666666666667,111.0,12.273092026005013,12
5198,2018-04-26 07:24:00,104.71428571428571,103.0,10.359260867179938,21
5198,2018-04-26 07:28:00,113.22222222222223,111.0,11.686064460035405,27
5198,2018-04-26 07:32:00,105.84210526315789,103.0,12.203201573971098,19
5198,2018-04-26 07:36:00,108.33333333333333,108.0,18.9270529489758,21
5198,2018-04-26 07:40:00,110.5,111.0,14.231420636511777,16
5198,2018-04-26 07:44:00,109.38095238095238,108.0,11.2493386048967,21
5198,2018-04-26 07:48:00,108.36,111.0,12.385744493839141,25
5198,2018-04-26 07:52:00,106.05,103.0,20.36890044315495,20
5198,2018-04-26 07:56:00,111.24137931034483,111.0,13.362140473350692,29
5198,2018-04-26 08:00:00,110.12,111.0,12.080700862670732,25
5198,2018-04-26 08:04:00,112.45833333333333,108.0,17.103213953413313,24
5198,2018-04-26 08:08:00,112.125,114.0,14.471298430371395,24
5198,2018-04-26 08:12:00,109.53571428571429,108.0,9.585800234595238,28
5198,2018-04-26 08:16:00,105.0,100.0,16.51934892448515,28
5198,2018-04-26 08:20:00,112.5,112.5,9.43292107461947,26
5198,2018-04-26 08:24:00,111.1304347826087,111.0,13.5422045601086,23
5198,2018-04-26 08:28:00,110.1304347826087,108.0,12.41445033318426,23
5198,2018-04-26 08:32:00,108.10714285714286,106.0,15.039058495240997,28
5198,2018-04-26 08:36:00,113.5,111.0,15.583704689574036,28
5198,2018-04-26 08:40:00,111.19444444444444,112.5,9.922037361188748,36
5198,2018-04-26 08:44:00,100.1923076923077,100.0,14.427804353453732,26
5198,2018-04-26 08:48:00,116.0,117.0,10.692676621563628,25
5198,2018-04-26 08:52:00,104.05,106.0,14.43455611566945,40
5198,2018-04-26 08:56:00,109.20689655172414,111.0,13.014769934701187,29
5199,2018-04-26 07:00:00,91.85714285714286,94.0,17.27104140894939,182
5199,2018-04-26 07:04:00,94.49723756906077,94.0,15.001712609414614,181
5199,2018-04-26 07:08:00,95.19883040935673,97.0,14.815182944629294,171
5199,2018-04-26 07:12:00,101.64444444444445,103.0,13.764427564198979,180
5199,2018-04-26 07:16:00,91.11398963730569,89.0,12.82727648492562,193
5199,2018-04-26 07:20:00,94.33333333333333,94.0,15.041098260150696,180
5199,2018-04-26 07:24:00,82.43023255813954,83.0,21.388383302542465,172
5199,2018-04-26 07:28:00,85.47368421052632,86.0,18.129074024315592,190
5199,2018-04-26 07:32:00,92.56043956043956,92.0,14.810932792787211,182
5199,2018-04-26 07:36:00,93.71502590673575,94.0,15.220827018579955,193
5199,2018-04-26 07:40:00,92.17894736842105,92.0,15.615064593921717,190
5199,2018-04-26 07:44:00,90.2316384180791,89.0,19.515946688317303,177
5199,2018-04-26 07:48:00,100.1731843575419,100.0,16.700876530336703,179
5199,2018-04-26 07:52:00,97.85567010309278,94.0,17.116479766600634,194
5199,2018-04-26 07:56:00,102.79213483146067,103.0,15.531871549649933,178
5199,2018-04-26 08:00:00,93.43406593406593,92.0,16.376898699117405,182
5199,2018-04-26 08:04:00,100.24581005586592,100.0,19.27377917810659,179
5199,2018-04-26 08:08:00,93.92553191489361,94.0,15.431227011979077,188
5199,2018-04-26 08:12:00,99.91379310344827,100.0,14.660652166441496,174
5199,2018-04-26 08:16:00,92.29775280898876,93.0,19.602435439189463,178
5199,2018-04-26 08:20:00,99.28651685393258,97.0,18.450175330333668,178
5199,2018-04-26 08:24:00,98.14857142857143,97.0,20.249895294586285,175
5199,2018-04-26 08:28:00,96.37209302325581,94.0,14.822968199281485,172
5199,2018-04-26 08:32:00,93.17777777777778,94.0,14.377650080934048,180
5199,2018-04-26 08:36:00,95.21176470588236,97.0,17.90051013629432,170
5199,2018-04-26 08:40:00,89.95698924731182,89.0,15.713938710752602,186
5199,2018-04-26 08:44:00,85.41884816753927,86.0,21.359885194176602,191
5199,2018-04-26 08:48:00,95.42328042328042,94.0,14.552205646622188,189
5199,2018-04-26 08:52:00,92.13978494623656,89.0,68.35639378115489,186
5199,2018-04-26 08:56:00,95.21428571428571,94.0,19.602328485444833,196
5200,2018-04-26 07:00:00,116.91666666666667,117.0,17.090445673923583,12
5200,2018-04-26 07:04:00,115.11111111111111,114.0,4.859126579037751,9
5200,2018-04-26 07:08:00,122.3076923076923,125.0,9.17773224880576,13
5200,2018-04-26 07:12:00,123.44444444444444,119.0,9.029273380387691,9
5200,2018-04-26 07:16:00,113.17647058823529,111.0,11.838682855989763,17
5200,2018-04-26 07:20:00,113.64285714285714,112.5,14.804402374642812,14
5200,2018-04-26 07:24:00,108.94117647058823,108.0,11.053679185203984,17
5200,2018-04-26 07:28:00,105.625,106.0,16.11322033502979,24
5200,2018-04-26 07:32:00,114.23529411764706,117.0,15.64260772603431,17
5200,2018-04-26 07:36:00,111.85714285714286,111.0,17.07420778333717,21
5200,2018-04-26 07:40:00,114.0,111.0,12.948616399703356,13
5200,2018-04-26 07:44:00,120.95238095238095,122.0,14.06227645324963,21
5200,2018-04-26 07:48:00,122.5,123.5,11.021191708098842,16
5200,2018-04-26 07:52:00,119.94444444444444,120.5,15.421422160031435,18
5200,2018-04-26 07:56:00,128.04761904761904,122.0,20.972544410433823,21
5200,2018-04-26 08:00:00,121.9375,119.0,13.004966999829977,16
5200,2018-04-26 08:04:00,111.35,112.5,16.809380213377725,20
5200,2018-04-26 08:08:00,110.63333333333334,111.0,11.053111071902613,30
5200,2018-04-26 08:12:00,109.80645161290323,111.0,15.319746200766968,31
5200,2018-04-26 08:16:00,108.4390243902439,108.0,13.097802831940564,41
5200,2018-04-26 08:20:00,108.46153846153847,107.0,10.54222279874892,26
5200,2018-04-26 08:24:00,96.28205128205128,94.0,17.90611291967181,39
5200,2018-04-26 08:28:00,86.76190476190476,97.0,30.9396024725826,42
5200,2018-04-26 08:32:00,64.625,69.0,24.411732677294584,40
5200,2018-04-26 08:36:00,109.95833333333333,108.0,14.032506258115758,24
5200,2018-04-26 08:40:00,97.48387096774194,94.0,17.672711483606463,31
5200,2018-04-26 08:44:00,57.63157894736842,58.0,27.211306327226175,38
5200,2018-04-26 08:48:00,46.270833333333336,47.0,20.826271852897246,48
5200,2018-04-26 08:52:00,49.08888888888889,47.0,24.31686865141359,45
5200,2018-04-26 08:56:00,97.61111111111111,100.0,25.854845114079026,36
5201,2018-04-26 07:00:00,99.96946564885496,100.0,13.711835949167703,131
5201,2018-04-26 07:04:00,74.67361111111111,72.0,24.430243168545843,144
5201,2018-04-26 07:08:00,70.52380952380952,78.0,22.53733410524475,126
5201,2018-04-26 07:12:00,63.5655737704918,67.0,21.769258674143813,122
5201,2018-04-26 07:16:00,50.75,48.5,20.00472917060336,112
5201,2018-04-26 07:20:00,53.0,58.0,17.32523980862111,123
5201,2018-04-26 07:24:00,58.34426229508197,61.0,21.13075018001732,122
5201,2018-04-26 07:28:00,62.23015873015873,58.0,21.90677071534285,126
5201,2018-04-26 07:32:00,65.384,67.0,20.67169796543558,125
5201,2018-04-26 07:36:00,77.82978723404256,81.0,19.961376078677723,141
5201,2018-04-26 07:40:00,63.3671875,64.0,22.48669636223608,128
5201,2018-04-26 07:44:00,92.14423076923077,93.0,18.053544024089117,104
5201,2018-04-26 07:48:00,101.55339805825243,100.0,10.503713773988633,103
5201,2018-04-26 07:52:00,91.9322033898305,97.0,23.787423529682684,118
5201,2018-04-26 07:56:00,96.59130434782608,97.0,15.071697451621914,115
5201,2018-04-26 08:00:00,73.41269841269842,81.0,22.998876439085397,126
5201,2018-04-26 08:04:00,69.83739837398375,72.0,21.193245902045952,123
5201,2018-04-26 08:08:00,68.6046511627907,72.0,23.367451523383423,129
5201,2018-04-26 08:12:00,63.07086614173228,67.0,20.25009547395177,127
5201,2018-04-26 08:16:00,61.72950819672131,64.0,25.411338942754842,122
5201,2018-04-26 08:20:00,56.224137931034484,58.0,18.487639211056692,116
5201,2018-04-26 08:24:00,36.88421052631579,42.0,13.760769985487915,95
5201,2018-04-26 08:28:00,48.7196261682243,50.0,17.938466306901404,107
5201,2018-04-26 08:32:00,57.008620689655174,59.5,21.076463563459342,116
5201,2018-04-26 08:36:00,55.6,58.0,16.658489221952113,115
5201,2018-04-26 08:40:00,57.71084337349398,61.0,22.44099586964692,83
5201,2018-04-26 08:44:00,39.4054054054054,39.0,17.9488763481774,74
5201,2018-04-26 08:48:00,38.94,36.0,15.060028035978036,100
5201,2018-04-26 08:52:00,47.411764705882355,50.0,21.856124021679122,102
5201,2018-04-26 08:56:00,51.675925925925924,56.0,22.038126989168642,108
5202,2018-04-26 07:00:00,112.52941176470588,111.0,10.393012358423954,17
5202,2018-04-26 07:04:00,115.63636363636364,114.0,9.839403072028952,22
5202,2018-04-26 07:08:00,119.41176470588235,119.0,12.354446686969695,17
5202,2018-04-26 07:12:00,118.47058823529412,117.0,11.451624595766008,17
5202,2018-04-26 07:16:00,125.07692307692308,119.0,26.61597746486603,13
5202,2018-04-26 07:20:00,110.0952380952381,108.0,7.133756106741818,21
5202,2018-04-26 07:24:00,109.35714285714286,111.0,8.756856723878702,28
5202,2018-04-26 07:28:00,118.8125,120.5,9.887492098606199,16
5202,2018-04-26 07:32:00,117.35714285714286,109.5,18.38731645981562,14
5202,2018-04-26 07:36:00,110.31818181818181,109.5,9.538824743603241,22
5202,2018-04-26 07:40:00,107.09677419354838,108.0,13.242242606421005,31
5202,2018-04-26 07:44:00,100.13636363636364,107.0,28.59453070339127,22
5202,2018-04-26 07:48:00,112.36363636363636,111.0,9.693126944217227,22
5202,2018-04-26 07:52:00,117.5,115.5,12.154798658751313,24
5202,2018-04-26 07:56:00,114.79166666666667,112.5,8.027015075013422,24
5202,2018-04-26 08:00:00,112.48275862068965,114.0,10.391001222401089,29
5202,2018-04-26 08:04:00,111.43333333333334,109.5,10.328011236048983,30
5202,2018-04-26 08:08:00,112.73076923076923,111.0,18.86914453240039,26
5202,2018-04-26 08:12:00,109.5,108.0,10.152540276899868,28
5202,2018-04-26 08:16:00,113.76470588235294,114.0,9.839521150472127,17
5202,2018-04-26 08:20:00,100.34482758620689,103.0,11.905208530209935,29
5202,2018-04-26 08:24:00,98.2,98.5,16.417577230068485,20
5202,2018-04-26 08:28:00,107.89189189189189,108.0,10.80582092049307,37
5202,2018-04-26 08:32:00,118.95652173913044,119.0,14.855296762341474,23
5202,2018-04-26 08:36:00,111.52941176470588,105.5,23.364354220229206,34
5202,2018-04-26 08:40:00,109.62962962962963,108.0,16.68520336693597,27
5202,2018-04-26 08:44:00,105.45238095238095,104.5,12.423821298465853,42
5202,2018-04-26 08:48:00,106.92682926829268,108.0,9.77340842260887,41
5202,2018-04-26 08:52:00,118.42105263157895,119.0,9.167065382078293,19
5202,2018-04-26 08:56:00,112.6875,111.0,10.46721070772916,16
5203,2018-04-26 07:00:00,103.01869158878505,103.0,13.997965693447334,107
5203,2018-04-26 07:04:00,98.50819672131148,98.5,12.21247560315578,122
5203,2018-04-26 07:08:00,96.20967741935483,94.0,12.763817122529302,124
5203,2018-04-26 07:12:00,96.41739130434783,92.0,14.826471471422524,115
5203,2018-04-26 07:16:00,99.62393162393163,97.0,14.330896509078043,117
5203,2018-04-26 07:20:00,93.71698113207547,92.0,13.116151233520945,106
5203,2018-04-26 07:24:00,99.70689655172414,98.5,11.937531054458537,116
5203,2018-04-26 07:28:00,95.23770491803279,92.0,28.386661190285164,122
5203,2018-04-26 07:32:00,93.82727272727273,92.0,16.25928617710993,110
5203,2018-04-26 07:36:00,96.96694214876032,94.0,16.223919524525865,121
5203,2018-04-26 07:40:00,98.8955223880597,97.0,17.954943046421704,134
5203,2018-04-26 07:44:00,95.664,94.0,15.389011580324281,125
5203,2018-04-26 07:48:00,99.68181818181819,97.0,21.299925407192386,110
5203,2018-04-26 07:52:00,102.25210084033614,100.0,11.653339150032371,119
5203,2018-04-26 07:56:00,99.74358974358974,100.0,12.03669235565658,117
5203,2018-04-26 08:00:00,103.54782608695652,97.0,64.98181168985522,115
5203,2018-04-26 08:04:00,91.4396551724138,92.0,13.09981001727718,116
5203,2018-04-26 08:08:00,80.925,81.0,23.197059542721608,120
5203,2018-04-26 08:12:00,80.4770642201835,81.0,25.381021026318656,109
5203,2018-04-26 08:16:00,57.6625,58.5,23.52803001108532,80
5203,2018-04-26 08:20:00,59.822916666666664,64.0,21.483895947609682,96
5203,2018-04-26 08:24:00,71.6822429906542,72.0,27.527892589031016,107
5203,2018-04-26 08:28:00,71.15384615384616,69.0,27.405564348594563,91
5203,2018-04-26 08:32:00,106.77477477477477,108.0,17.185979848641256,111
5203,2018-04-26 08:36:00,101.42735042735043,100.0,16.508783576042926,117